GW2350 Weather Reports


Display with metric or nautical units.
time (UTC)temp
F
wind
direction
speed
MPH
gust
MPH
rain 1hr
in
rain 24hr
in
rain mn
in
humidity
%
barometer
mb
20260507120409 51 298 0.0 0.0 0.00 0.00 0.00 91 1018.0
20260507115906 51 298 0.0 0.0 0.00 0.00 0.00 91 1018.2
20260507115402 51 298 0.0 0.0 0.00 0.00 0.00 91 1017.9
20260507114858 51 298 0.0 0.0 0.00 0.00 0.00 91 1017.8
20260507114355 51 299 0.0 0.0 0.00 0.00 0.00 90 1017.9
20260507113852 51 299 0.0 0.0 0.00 0.00 0.00 90 1018.0
20260507113349 52 299 0.0 0.0 0.00 0.00 0.00 90 1018.1
20260507112846 51 299 0.0 0.0 0.00 0.00 0.00 90 1018.0
20260507112343 52 299 0.0 0.0 0.00 0.00 0.00 90 1018.3
20260507111841 51 299 0.0 0.0 0.00 0.00 0.00 90 1018.1
20260507111338 52 299 0.0 0.0 0.00 0.00 0.00 89 1018.3
20260507110834 52 299 0.0 0.0 0.00 0.00 0.00 89 1018.4
20260507110330 52 301 0.0 0.0 0.00 0.00 0.00 89 1018.4
20260507105827 51 289 0.0 0.0 0.00 0.00 0.00 89 1018.3
20260507105324 52 289 0.0 0.0 0.00 0.00 0.00 89 1018.2
20260507104821 52 286 0.0 0.0 0.00 0.00 0.00 89 1018.3
20260507104317 52 285 0.0 0.0 0.00 0.00 0.00 89 1018.2
20260507103813 52 281 0.0 0.0 0.00 0.00 0.00 88 1018.4
20260507103310 52 281 0.0 0.0 0.00 0.00 0.00 88 1018.5
20260507102806 52 281 0.0 0.0 0.00 0.00 0.00 88 1018.4
20260507102306 52 281 0.0 0.0 0.00 0.00 0.00 88 1018.4
20260507101759 52 281 0.0 0.0 0.00 0.00 0.00 88 1018.6
20260507101259 52 280 0.0 0.0 0.00 0.00 0.00 88 1018.7
20260507100756 52 280 0.0 0.0 0.00 0.00 0.00 88 1018.8
20260507100255 52 280 0.0 0.0 0.00 0.00 0.00 88 1018.7
20260507095752 53 280 0.0 0.0 0.00 0.00 0.00 87 1018.6
20260507095249 53 280 0.0 0.0 0.00 0.00 0.00 87 1018.3
20260507094746 53 280 0.0 0.0 0.00 0.00 0.00 87 1018.4
20260507094243 53 280 0.0 0.0 0.00 0.00 0.00 87 1018.7
20260507093739 53 280 0.0 0.0 0.00 0.00 0.00 87 1018.5
20260507093238 53 280 0.0 0.0 0.00 0.00 0.00 87 1018.8
20260507092735 53 280 0.0 0.0 0.00 0.00 0.00 87 1018.6
20260507092231 53 281 0.0 0.0 0.00 0.00 0.00 86 1018.8
20260507091728 53 281 0.0 0.0 0.00 0.00 0.00 86 1018.9
20260507091224 53 281 0.0 0.0 0.00 0.00 0.00 86 1018.9
20260507090720 54 281 0.0 0.0 0.00 0.00 0.00 86 1018.8
20260507090217 54 281 0.0 0.0 0.00 0.00 0.00 86 1018.8
20260507085714 54 281 0.0 0.0 0.00 0.00 0.00 86 1018.9
20260507085211 54 281 0.0 0.0 0.00 0.00 0.00 85 1018.9
20260507084708 54 281 0.0 0.0 0.00 0.00 0.00 85 1018.8
20260507084204 54 281 0.0 0.0 0.00 0.00 0.00 85 1019.2
20260507083702 54 281 0.0 0.0 0.00 0.00 0.00 85 1019.1
20260507083158 54 281 0.0 0.0 0.00 0.00 0.00 85 1019.1
20260507082654 54 281 0.0 0.0 0.00 0.00 0.00 85 1019.1
20260507082150 54 281 0.0 0.0 0.00 0.00 0.00 84 1019.2
20260507081647 54 281 0.0 0.0 0.00 0.00 0.00 84 1019.2
20260507081143 54 281 0.0 0.0 0.00 0.00 0.00 83 1019.4
20260507080640 54 280 0.0 0.0 0.00 0.00 0.00 83 1019.4
20260507080136 55 280 0.0 0.0 0.00 0.00 0.00 83 1019.4
20260507075631 55 280 0.0 0.0 0.00 0.00 0.00 82 1019.4
20260507075128 55 282 0.0 0.0 0.00 0.00 0.00 83 1019.5
20260507074625 55 282 0.0 0.0 0.00 0.00 0.00 83 1019.5
20260507074123 55 283 0.0 0.0 0.00 0.00 0.00 84 1019.8
20260507073619 55 283 0.0 0.0 0.00 0.00 0.00 84 1019.5
20260507073115 55 281 0.0 0.0 0.00 0.00 0.00 84 1019.5
20260507072613 55 283 0.0 0.0 0.00 0.00 0.00 84 1019.4
20260507072110 55 283 0.0 0.0 0.00 0.00 0.00 84 1019.5
20260507071607 55 283 0.0 0.0 0.00 0.00 0.00 83 1019.6
20260507071104 55 283 0.0 0.0 0.00 0.00 0.00 83 1019.8
20260507070601 55 283 0.0 0.0 0.00 0.00 0.00 83 1019.8
20260507070058 56 283 0.0 0.0 0.00 0.00 0.00 82 1019.6
20260507065554 56 283 0.0 0.0 0.00 0.00 0.00 82 1019.6
20260507065051 56 283 0.0 0.0 0.00 0.00 0.00 82 1019.4
20260507064549 56 283 0.0 0.0 0.00 0.00 0.00 83 1019.7
20260507064048 56 283 0.0 0.0 0.00 0.00 0.00 83 1019.7
20260507063544 56 283 0.0 0.0 0.00 0.00 0.00 83 1019.6
20260507063042 57 283 0.0 0.0 0.00 0.00 0.00 83 1019.5
20260507062538 57 283 0.0 0.0 0.00 0.00 0.00 83 1019.6
20260507062036 57 283 0.0 0.0 0.00 0.00 0.00 83 1019.8
20260507061533 57 283 0.0 0.0 0.00 0.00 0.00 82 1019.4
20260507061031 57 283 0.0 0.0 0.00 0.00 0.00 82 1019.6
20260507060529 57 283 0.0 0.0 0.00 0.00 0.00 82 1019.4
20260507060025 57 283 0.0 0.0 0.00 0.00 0.00 82 1019.4
20260507055520 58 283 0.0 0.0 0.00 0.00 0.00 82 1019.5
20260507055017 58 283 0.0 0.0 0.00 0.00 0.00 82 1019.5
20260507054513 58 282 0.0 0.0 0.00 0.00 0.00 82 1019.5
20260507054010 58 282 0.0 0.0 0.00 0.00 0.00 82 1019.8
20260507053508 58 282 0.0 0.0 0.00 0.00 0.00 81 1019.8
20260507053006 58 282 0.0 0.0 0.00 0.00 0.00 82 1019.6
20260507052504 58 284 0.0 0.0 0.00 0.00 0.00 81 1019.6
20260507052000 58 284 0.0 0.0 0.00 0.00 0.00 80 1019.7
20260507051458 58 284 0.0 0.0 0.00 0.00 0.00 80 1019.6
20260507050954 58 284 0.0 0.0 0.00 0.00 0.00 79 1019.8
20260507050450 59 284 0.0 0.0 0.00 0.00 0.00 79 1019.7
20260507045948 59 277 0.0 0.0 0.00 0.00 0.00 78 1019.8
20260507045444 59 276 0.0 0.0 0.00 0.00 0.00 78 1019.7
20260507044941 59 275 0.0 0.0 0.00 0.00 0.00 77 1019.5
20260507044438 59 275 0.0 0.0 0.00 0.00 0.00 77 1019.5
20260507043934 60 271 0.0 0.0 0.00 0.00 0.00 76 1019.5
20260507043431 60 254 0.0 0.0 0.00 0.00 0.00 76 1019.6
20260507042927 60 270 0.0 0.0 0.00 0.00 0.00 75 1019.4
20260507042424 60 276 0.0 0.0 0.00 0.00 0.00 74 1019.4
20260507041919 60 277 0.0 0.0 0.00 0.00 0.00 72 1019.6
20260507041416 60 257 1.0 2.0 0.00 0.00 0.00 71 1019.2
20260507040914 60 266 1.0 1.0 0.00 0.00 0.00 71 1019.5
20260507040409 61 277 0.0 1.0 0.00 0.00 0.00 70 1019.2
20260507035905 61 196 3.0 3.0 0.00 0.00 0.00 69 1019.4
20260507035402 61 237 2.0 3.0 0.00 0.00 0.00 69 1019.2
20260507034859 61 180 3.0 3.0 0.00 0.00 0.00 68 1019.1
20260507034355 62 142 4.0 5.0 0.00 0.00 0.00 68 1018.7
20260507033854 61 219 1.0 2.0 0.00 0.00 0.00 69 1018.8
20260507033351 61 286 0.0 0.0 0.00 0.00 0.00 69 1018.9
20260507032848 62 245 1.0 2.0 0.00 0.00 0.00 68 1018.8
20260507032345 62 278 1.0 1.0 0.00 0.00 0.00 68 1019.1
20260507031841 62 276 1.0 2.0 0.00 0.00 0.00 67 1018.8
20260507031338 62 265 3.0 3.0 0.00 0.00 0.00 67 1018.7
20260507030834 63 259 3.0 5.0 0.00 0.00 0.00 66 1018.7
20260507030332 63 278 1.0 1.0 0.00 0.00 0.00 66 1018.6
20260507025829 63 279 1.0 1.0 0.00 0.00 0.00 66 1018.5
20260507025326 63 280 0.0 1.0 0.00 0.00 0.00 66 1018.5
20260507024824 64 277 1.0 1.0 0.00 0.00 0.00 65 1018.4
20260507024321 64 260 3.0 3.0 0.00 0.00 0.00 65 1018.3
20260507023816 64 278 1.0 1.0 0.00 0.00 0.00 65 1018.5
20260507023313 64 257 4.0 6.0 0.00 0.00 0.00 65 1018.3
20260507022811 64 245 2.0 3.0 0.00 0.00 0.00 65 1018.3
20260507022307 65 261 3.0 3.0 0.00 0.00 0.00 65 1018.4
20260507021803 65 238 3.0 3.0 0.00 0.00 0.00 65 1018.3
20260507021259 65 244 6.0 8.0 0.00 0.00 0.00 65 1018.4
20260507020757 66 215 7.0 9.0 0.00 0.00 0.00 66 1018.1
20260507020253 66 245 6.0 7.0 0.00 0.00 0.00 65 1018.0
20260507015751 66 260 2.0 2.0 0.00 0.00 0.00 65 1017.9
20260507015248 66 237 4.0 5.0 0.00 0.00 0.00 65 1017.8
20260507014745 67 270 3.0 5.0 0.00 0.00 0.00 65 1017.9
20260507014241 67 265 6.0 7.0 0.00 0.00 0.00 65 1017.9
20260507013738 67 261 5.0 6.0 0.00 0.00 0.00 64 1017.9
20260507013235 68 253 8.0 11.0 0.00 0.00 0.00 63 1017.7
20260507012732 68 256 7.0 10.0 0.00 0.00 0.00 63 1017.7
20260507012228 68 253 6.0 8.0 0.00 0.00 0.00 63 1017.7
20260507011726 69 242 4.0 6.0 0.00 0.00 0.00 61 1017.7
20260507011222 69 236 5.0 6.0 0.00 0.00 0.00 62 1017.7
20260507010721 69 207 8.0 9.0 0.00 0.00 0.00 62 1017.5
20260507010218 69 237 8.0 9.0 0.00 0.00 0.00 61 1017.6
20260507005716 70 227 10.0 11.0 0.00 0.00 0.00 60 1017.5
20260507005212 70 226 5.0 6.0 0.00 0.00 0.00 60 1017.5
20260507004708 71 223 5.0 7.0 0.00 0.00 0.00 59 1017.5
20260507004206 72 198 7.0 10.0 0.00 0.00 0.00 58 1017.5
20260507003702 72 156 3.0 3.0 0.00 0.00 0.00 58 1017.5
20260507003158 72 236 5.0 7.0 0.00 0.00 0.00 57 1017.3
20260507002654 71 229 4.0 5.0 0.00 0.00 0.00 58 1017.5
20260507002150 71 219 4.0 6.0 0.00 0.00 0.00 59 1017.3
20260507001647 71 219 7.0 9.0 0.00 0.00 0.00 58 1017.2
20260507001144 72 261 5.0 8.0 0.00 0.00 0.00 58 1017.0
20260507000640 71 250 7.0 13.0 0.00 0.00 0.00 57 1017.2
20260507000136 72 245 7.0 11.0 0.00 0.00 0.00 57 1017.2
20260506235633 72 226 9.0 11.0 0.00 0.00 0.00 57 1017.0
20260506235128 73 244 4.0 5.0 0.00 0.00 0.00 57 1017.1
20260506234625 73 243 7.0 8.0 0.00 0.00 0.00 56 1016.7
20260506234122 72 219 7.0 8.0 0.00 0.00 0.00 57 1017.0
20260506233619 72 222 10.0 10.0 0.00 0.00 0.00 56 1016.9
20260506233116 73 234 10.0 11.0 0.00 0.00 0.00 55 1016.7
20260506232612 73 211 6.0 8.0 0.00 0.00 0.00 55 1017.0
20260506232108 73 285 7.0 9.0 0.00 0.00 0.00 55 1017.1
20260506231605 73 218 7.0 8.0 0.00 0.00 0.00 55 1016.8
20260506231103 73 221 5.0 6.0 0.00 0.00 0.00 55 1016.9
20260506230600 73 235 8.0 10.0 0.00 0.00 0.00 54 1017.1
20260506230057 73 238 6.0 9.0 0.00 0.00 0.00 56 1017.1
20260506225554 73 231 9.0 11.0 0.00 0.00 0.00 55 1017.0
20260506225050 73 228 7.0 9.0 0.00 0.00 0.00 55 1017.1
20260506224547 74 247 9.0 11.0 0.00 0.00 0.00 55 1017.1
20260506224043 74 263 2.0 3.0 0.00 0.00 0.00 54 1017.3
20260506223539 75 226 10.0 11.0 0.00 0.00 0.00 53 1017.3
20260506223036 74 224 8.0 9.0 0.00 0.00 0.00 53 1017.3
20260506222533 76 151 5.0 6.0 0.00 0.00 0.00 51 1017.4
20260506222029 76 239 4.0 5.0 0.00 0.00 0.00 51 1017.5
20260506221527 75 223 8.0 10.0 0.00 0.00 0.00 51 1017.4
20260506221025 76 268 4.0 5.0 0.00 0.00 0.00 51 1017.4
20260506220520 76 221 4.0 5.0 0.00 0.00 0.00 51 1017.4
20260506220016 76 260 7.0 10.0 0.00 0.00 0.00 50 1017.5
20260506215513 75 255 4.0 6.0 0.00 0.00 0.00 52 1017.7
20260506215009 75 229 5.0 7.0 0.00 0.00 0.00 51 1017.6
20260506214506 76 210 4.0 8.0 0.00 0.00 0.00 49 1017.5
20260506214003 75 252 5.0 6.0 0.00 0.00 0.00 52 1017.4
20260506213501 76 253 9.0 10.0 0.00 0.00 0.00 51 1017.7
20260506212958 76 218 9.0 11.0 0.00 0.00 0.00 50 1017.7
20260506212454 76 230 4.0 5.0 0.00 0.00 0.00 48 1017.9
20260506211949 76 234 7.0 9.0 0.00 0.00 0.00 48 1017.8
20260506211445 77 245 5.0 9.0 0.00 0.00 0.00 43 1017.7
20260506210943 77 297 0.0 1.0 0.00 0.00 0.00 39 1017.8
20260506210439 77 304 2.0 3.0 0.00 0.00 0.00 39 1018.0
20260506205936 76 287 0.0 1.0 0.00 0.00 0.00 38 1017.9
20260506205432 77 268 3.0 5.0 0.00 0.00 0.00 39 1018.1
20260506204928 75 261 1.0 2.0 0.00 0.00 0.00 40 1018.0
20260506204427 76 298 2.0 2.0 0.00 0.00 0.00 39 1018.4
20260506203924 76 259 3.0 3.0 0.00 0.00 0.00 40 1018.1
20260506203421 74 306 1.0 2.0 0.00 0.00 0.00 41 1018.2
20260506202918 74 317 5.0 7.0 0.00 0.00 0.00 42 1018.4
20260506202415 74 229 4.0 5.0 0.00 0.00 0.00 42 1018.4
20260506201911 75 250 5.0 6.0 0.00 0.00 0.00 41 1018.5
20260506201409 74 306 0.0 1.0 0.00 0.00 0.00 45 1018.4
20260506200905 74 274 1.0 1.0 0.00 0.00 0.00 44 1018.7
20260506200401 74 255 3.0 3.0 0.00 0.00 0.00 44 1018.7
20260506195858 74 307 3.0 3.0 0.00 0.00 0.00 43 1018.8
20260506195355 74 298 3.0 3.0 0.00 0.00 0.00 45 1018.9
20260506194852 74 287 2.0 2.0 0.00 0.00 0.00 42 1018.9
20260506194349 73 352 2.0 2.0 0.00 0.00 0.00 45 1019.2
20260506193846 72 270 3.0 5.0 0.00 0.00 0.00 45 1019.0
20260506193343 72 255 1.0 1.0 0.00 0.00 0.00 46 1019.1
20260506192839 71 284 2.0 3.0 0.00 0.00 0.00 48 1019.4
20260506192336 71 259 4.0 6.0 0.00 0.00 0.00 48 1019.5
20260506191833 71 53 1.0 3.0 0.00 0.00 0.00 48 1019.4
20260506191329 71 284 1.0 2.0 0.00 0.00 0.00 49 1019.6
20260506190826 70 274 2.0 3.0 0.00 0.00 0.00 48 1019.6
20260506190322 70 229 4.0 6.0 0.00 0.00 0.00 49 1019.6
20260506185820 69 252 7.0 9.0 0.00 0.00 0.00 50 1019.6
20260506185317 69 245 3.0 5.0 0.00 0.00 0.00 50 1019.8
20260506184814 68 284 2.0 2.0 0.00 0.00 0.00 52 1019.9
20260506184311 69 241 6.0 7.0 0.00 0.00 0.00 51 1020.1
20260506183808 69 224 4.0 5.0 0.00 0.00 0.00 50 1020.0
20260506183303 68 297 2.0 3.0 0.00 0.00 0.00 53 1019.9
20260506182801 68 320 6.0 7.0 0.00 0.00 0.00 50 1020.2
20260506182257 67 274 3.0 6.0 0.00 0.00 0.00 53 1020.1
20260506181755 67 293 3.0 5.0 0.00 0.00 0.00 53 1020.2
20260506181253 67 322 5.0 9.0 0.00 0.00 0.00 54 1020.2
20260506180750 66 301 2.0 3.0 0.00 0.00 0.00 55 1020.4
20260506180246 66 296 1.0 1.0 0.00 0.00 0.00 54 1020.4
20260506175742 65 291 5.0 7.0 0.00 0.00 0.00 55 1020.3
20260506175239 66 308 7.0 8.0 0.00 0.00 0.00 54 1020.5
20260506174737 66 264 3.0 5.0 0.00 0.00 0.00 54 1020.3
20260506174233 66 337 1.0 2.0 0.00 0.00 0.00 55 1020.4
20260506173732 65 281 1.0 1.0 0.00 0.00 0.00 55 1020.4
20260506173228 66 326 0.0 0.0 0.00 0.00 0.00 54 1020.5
20260506172725 67 259 3.0 3.0 0.00 0.00 0.00 53 1020.6
20260506172221 67 261 1.0 1.0 0.00 0.00 0.00 52 1020.5
20260506171719 65 272 2.0 3.0 0.00 0.00 0.00 54 1020.6
20260506171216 64 304 2.0 2.0 0.00 0.00 0.00 57 1020.5
20260506170714 64 275 2.0 2.0 0.00 0.00 0.00 58 1020.6
20260506170210 65 298 0.0 1.0 0.00 0.00 0.00 59 1020.5
20260506165709 64 290 0.0 0.0 0.00 0.00 0.00 60 1020.5
20260506165205 64 276 1.0 1.0 0.00 0.00 0.00 59 1020.6
20260506164702 63 262 2.0 2.0 0.00 0.00 0.00 60 1020.6
20260506164159 62 313 0.0 0.0 0.00 0.00 0.00 62 1020.5
20260506163655 62 284 0.0 0.0 0.00 0.00 0.00 66 1020.6
20260506163151 62 270 0.0 0.0 0.00 0.00 0.00 64 1020.6
20260506162647 62 307 0.0 0.0 0.00 0.00 0.00 64 1020.6
20260506162145 61 297 0.0 0.0 0.00 0.00 0.00 67 1020.7
20260506161642 61 312 0.0 0.0 0.00 0.00 0.00 66 1020.7
20260506161138 61 278 0.0 0.0 0.00 0.00 0.00 65 1020.8
20260506160636 60 276 0.0 0.0 0.00 0.00 0.00 68 1020.7
20260506160133 59 328 0.0 0.0 0.00 0.00 0.00 69 1020.7
20260506155632 59 167 0.0 0.0 0.00 0.00 0.00 67 1020.5
20260506155128 57 257 0.0 0.0 0.00 0.00 0.00 74 1020.5
20260506153230 58 283 0.0 0.0 0.00 0.00 0.00 74 1020.7
20260506152727 58 284 0.0 0.0 0.00 0.00 0.00 74 1020.6
20260506152225 57 195 0.0 0.0 0.00 0.00 0.00 75 1020.7
20260506151724 56 262 0.0 0.0 0.00 0.00 0.00 74 1020.8
20260506151220 57 247 0.0 0.0 0.00 0.00 0.00 73 1020.8
20260506150716 57 335 0.0 0.0 0.00 0.00 0.00 72 1020.8
20260506150213 56 291 0.0 0.0 0.00 0.00 0.00 72 1020.6
20260506145711 56 306 0.0 0.0 0.00 0.00 0.00 72 1020.8
20260506145207 55 285 0.0 0.0 0.00 0.00 0.00 73 1020.8
20260506144704 55 282 0.0 0.0 0.00 0.00 0.00 73 1020.8
20260506144201 55 310 0.0 0.0 0.00 0.00 0.00 75 1020.8
20260506143659 54 341 0.0 0.0 0.00 0.00 0.00 75 1020.6
20260506143156 53 303 0.0 0.0 0.00 0.00 0.00 79 1020.6
20260506142655 52 299 0.0 0.0 0.00 0.00 0.00 80 1020.5
20260506142152 52 306 0.0 0.0 0.00 0.00 0.00 80 1020.6
20260506141650 52 301 0.0 0.0 0.00 0.00 0.00 83 1020.7
20260506141148 50 275 0.0 0.0 0.00 0.00 0.00 84 1020.7
20260506140645 50 278 0.0 0.0 0.00 0.00 0.00 87 1020.6
20260506140142 50 312 0.0 0.0 0.00 0.00 0.00 90 1020.6
20260506135639 50 302 0.0 0.0 0.00 0.00 0.00 91 1020.4
20260506135135 49 301 0.0 0.0 0.00 0.00 0.00 93 1020.4
20260506134632 48 301 0.0 0.0 0.00 0.00 0.00 93 1020.3
20260506134128 48 300 0.0 0.0 0.00 0.00 0.00 94 1020.4
20260506133625 47 302 0.0 0.0 0.00 0.00 0.00 94 1020.3
20260506133122 46 301 0.0 0.0 0.00 0.00 0.00 94 1020.4
20260506132620 46 301 0.0 0.0 0.00 0.00 0.00 94 1020.3
20260506132116 46 300 0.0 0.0 0.00 0.00 0.00 94 1020.4
20260506131614 46 302 0.0 0.0 0.00 0.00 0.00 94 1020.3
20260506131110 45 300 0.0 0.0 0.00 0.00 0.00 94 1020.2
20260506130607 46 300 0.0 0.0 0.00 0.00 0.00 94 1020.1
20260506130104 46 300 0.0 0.0 0.00 0.00 0.00 94 1020.1
20260506125603 46 302 0.0 0.0 0.00 0.00 0.00 94 1020.0
20260506125100 46 301 0.0 0.0 0.00 0.00 0.00 94 1020.1
20260506124558 46 292 0.0 0.0 0.00 0.00 0.00 94 1019.9
20260506124055 46 298 0.0 0.0 0.00 0.00 0.00 94 1019.9
20260506123553 46 302 0.0 0.0 0.00 0.00 0.00 94 1019.9
20260506123051 46 298 0.0 0.0 0.00 0.00 0.00 94 1019.8
20260506122547 46 297 0.0 0.0 0.00 0.00 0.00 94 1019.8
20260506122046 46 306 0.0 0.0 0.00 0.00 0.00 94 1019.8
20260506121543 46 301 0.0 0.0 0.00 0.00 0.00 94 1019.8
20260506121039 46 299 0.0 0.0 0.00 0.00 0.00 94 1019.7